[[{"header":{"parameterUnit":"m.s-1","parameterCategory":1,"la1":30.2991,"la2":30.254,"lo1":-89.0895,"lo2":-89.0444,"dy":0.0017,"dx":0.0017,"nx":28,"ny":28,"refTime":"2025-07-09T21:00:00:Z","depth":0,"parameterNumber":2,"parameterNumberName":"U-component_of_WINDS"},"data":[0,0,0,0,0,0,0,0,0,0,0,0,0,0,0,0,0,0,0,0,0,0,0,0,0,0,0,0,0,0,0,0,0,0,0,0,0,0,0,0,0,0,0,0,0,0,0,0,0,0,0,0,0,0,0,0,0,0,2.8669,2.867,0,2.876,2.8761,2.8762,2.8767,2.8766,2.8765,2.8764,2.8861,2.8864,2.8868,0,0,0,0,0,0,0,0,0,0,0,0,0,2.8504,2.8507,2.8669,2.867,2.8671,2.876,2.8761,2.8763,2.8767,2.8766,2.8765,2.8763,2.886,2.8864,2.8868,0,0,0,0,0,0,0,0,0,0,0,0,0,2.8583,2.8508,2.8669,2.8684,2.8686,2.876,2.8761,2.8763,2.8767,2.8766,2.8764,2.8763,2.8858,2.8863,2.8869,2.8934,0,0,2.8885,2.8887,0,0,0,0,0,0,0,0,2.8579,2.8589,2.8681,2.8683,2.8686,2.8751,2.8739,2.8821,2.8768,2.8737,2.8764,2.8762,2.8826,2.8834,2.8854,2.8939,2.8943,2.8886,2.8889,2.8891,2.8893,0,0,0,0,0,0,0,2.8573,2.8585,2.8705,2.8682,2.8685,2.8688,2.8698,2.8754,2.8789,2.8739,2.874,2.875,2.8827,2.8849,2.8857,2.8944,2.8885,2.889,2.8894,2.8896,2.9089,2.9091,0,0,0,0,0,0,2.8564,2.8581,2.8702,2.8708,2.8627,2.8692,2.8703,2.8732,2.8789,2.8796,2.8752,2.875,2.8841,2.885,2.886,2.8942,2.8891,2.8896,2.8899,2.9087,2.909,2.9092,0,0,0,0,0,0,2.8561,2.8575,2.8699,2.8645,2.8661,2.8697,2.8729,2.8734,2.8756,2.8798,2.8805,2.8768,2.884,2.8853,2.8916,2.8945,2.8899,2.8903,2.9085,2.9088,2.9091,2.9105,0,0,0,0,0,0,2.8556,2.8574,2.8598,2.8645,2.8663,2.8752,2.8731,2.8737,2.8765,2.8764,2.8815,2.8822,2.884,2.8908,2.8921,2.8952,2.8908,2.9083,2.9087,2.909,2.9102,2.9108,2.9113,0,0,0,0,0,2.855,2.8598,2.8599,2.8613,2.8694,2.8753,2.8764,2.8782,2.8768,2.8793,2.882,2.882,2.894,2.8914,2.8929,2.8962,2.9081,2.9085,2.909,2.91,2.9107,2.9113,0,0,0,0,0,0,2.8554,2.8605,2.8606,2.8671,2.8707,2.8754,2.8786,2.8789,2.8832,2.8829,2.8852,2.8863,2.8927,2.8951,2.8921,2.903,2.9009,2.9017,2.9011,2.9019,2.9024,2.9017,2.8912,0,0,0,0,0,2.8562,2.8605,2.8647,2.8701,2.8719,2.8749,2.8776,2.8787,2.8827,2.8843,2.8874,2.8914,2.8961,2.8991,2.9036,2.9106,2.9118,2.9136,2.9141,2.9145,2.9152,2.9193,2.9202,2.9106,2.9106,2.9106,0,0,2.858,2.8613,2.8639,2.8702,2.8732,2.8777,2.8763,2.8811,2.8845,2.885,2.8912,2.8937,2.8983,2.905,2.9081,2.9072,2.9181,2.9151,2.9154,2.9158,2.9198,2.9207,2.9215,2.9109,2.9109,2.9108,0,0,2.8636,2.8664,2.8713,2.8743,2.8788,2.8808,2.882,2.8867,2.8883,2.8945,2.8951,2.8993,2.9072,2.9105,2.9132,2.9203,2.9205,2.9217,2.9246,2.9285,2.9293,2.9299,2.9326,2.9335,2.9223,2.9223,2.9223,0,2.8653,2.8719,2.8737,2.8786,2.8815,2.8821,2.8871,2.89,2.8958,2.8979,2.8967,2.9069,2.91,2.9176,2.9193,2.9214,2.923,2.9211,2.929,2.9297,2.9304,2.9329,2.9339,2.9224,2.9224,2.9224,2.9224,0,2.8739,2.8786,2.8819,2.8875,2.8907,2.8956,2.8983,2.9015,2.9023,2.9045,2.911,2.9148,2.9202,2.922,2.923,2.9299,2.9292,2.9285,2.9265,2.9314,2.9338,2.9348,2.9226,2.9226,2.9225,2.9225,0,0,2.8799,2.8864,2.8877,2.8903,2.8954,2.8991,2.9042,2.9093,2.912,2.9161,2.9205,2.9273,2.9267,2.9298,2.9312,2.9346,2.9401,2.9335,2.9337,2.9347,2.9482,2.9487,2.9498,2.9403,2.9405,2.9407,2.9478,0,2.8862,2.895,2.8968,2.9045,2.909,2.9097,2.9142,2.9179,2.9201,2.9244,2.9269,2.9317,2.9305,2.9324,2.9359,2.9387,2.9429,2.9382,2.9446,2.9448,2.9435,2.951,2.9516,2.9582,2.9488,2.9489,2.9491,0,2.8946,2.8988,2.9069,2.9116,2.9135,2.9174,2.9224,2.9264,2.9307,2.9322,2.9357,2.9367,2.9421,2.9398,2.9475,2.9443,2.9471,2.9489,2.9492,2.9499,2.9473,2.9521,2.9603,2.9613,2.9506,2.9504,2.9503,0,2.8983,2.906,2.9119,2.9141,2.9197,2.9225,2.925,2.9291,2.9322,2.9366,2.9386,2.9436,2.9464,2.9504,2.9528,2.9509,2.9604,2.9582,2.9618,2.9618,2.9638,2.9637,2.9727,2.9655,2.9654,2.9654,2.9654,0,2.9052,2.9101,2.9137,2.9173,2.923,2.9252,2.9308,2.9333,2.937,2.9413,2.9423,2.9463,2.9492,2.9537,2.9556,2.9618,2.963,2.9645,2.9649,2.9644,2.9643,2.9663,2.966,2.9657,2.9656,2.9656,2.9655,0,2.9103,2.9129,2.9194,2.9241,2.9255,2.9295,2.9336,2.9373,2.9396,2.945,2.9464,2.9501,2.9554,2.9582,2.9649,2.9662,2.9732,2.9734,2.9717,2.9719,2.9754,2.9751,2.9861,2.9878,2.9793,2.9794,2.9795,0,2.9145,2.9184,2.9236,2.9265,2.929,2.9336,2.9367,2.9391,2.9423,2.9476,2.9507,2.9561,2.9605,2.9691,2.9724,2.9776,2.978,2.9815,2.9788,2.9782,2.9782,2.978,2.9785,2.982,2.9821,2.9822,2.9822,0,2.9218,2.9229,2.9273,2.9322,2.9359,2.9399,2.9438,2.9462,2.9492,2.9529,2.9583,2.9617,2.9686,2.974,2.9795,2.9822,2.9828,2.983,2.9842,2.9837,2.9827,2.9834,2.9731,2.9828,2.9827,2.9827,2.9826,2.9826,2.9267,2.9302,2.9345,2.9394,2.9426,2.9463,2.95,2.9528,2.9573,2.963,2.9642,2.97,2.9744,2.9818,2.9847,2.9894,2.9887,2.9903,2.9908,2.9912,2.9914,2.9818,2.9904,2.9904,2.9904,2.9904,2.9904,0,2.9342,2.9369,2.9414,2.9469,2.9509,2.9509,2.9554,2.9587,2.9638,2.9678,2.9721,2.9785,2.9838,2.9876,2.993,2.9961,2.9965,2.9974,2.9973,2.998,2.9916,2.9902,2.997,2.997,2.997,2.997,2.997,2.997,2.9385,2.9445,2.9462,2.9539,2.9566,2.9623,2.9648,2.9683,2.9716,2.9786,2.9829,2.9853,2.9894,2.9951,3.0,3.001,3.0031,3.004,3.005,2.9991,2.9984,2.9977,2.9963,3.0044,3.0044,3.011,3.011,3.0111]},{"header":{"parameterUnit":"m.s-1","parameterCategory":1,"la1":30.2991,"la2":30.254,"lo1":-89.0895,"lo2":-89.0444,"dy":0.0017,"dx":0.0017,"nx":28,"ny":28,"refTime":"2025-07-09T21:00:00:Z","depth":0,"parameterNumber":3,"parameterNumberName":"V-component_of_WINDS"},"data":[0,0,0,0,0,0,0,0,0,0,0,0,0,0,0,0,0,0,0,0,0,0,0,0,0,0,0,0,0,0,0,0,0,0,0,0,0,0,0,0,0,0,0,0,0,0,0,0,0,0,0,0,0,0,0,0,0,0,-0.6607,-0.6608,0,-0.6714,-0.6716,-0.6717,-0.6752,-0.6752,-0.6751,-0.6751,-0.6863,-0.6866,-0.6869,0,0,0,0,0,0,0,0,0,0,0,0,0,-0.6436,-0.6439,-0.6607,-0.6608,-0.661,-0.6714,-0.6716,-0.6717,-0.6752,-0.6752,-0.6751,-0.6751,-0.6862,-0.6866,-0.687,0,0,0,0,0,0,0,0,0,0,0,0,0,-0.6523,-0.644,-0.6607,-0.664,-0.6644,-0.6714,-0.6716,-0.6718,-0.6753,-0.6752,-0.6751,-0.6751,-0.686,-0.6865,-0.687,-0.6916,0,0,-0.6886,-0.6888,0,0,0,0,0,0,0,0,-0.6518,-0.653,-0.6634,-0.6638,-0.6642,-0.6719,-0.6696,-0.6784,-0.6753,-0.6711,-0.6751,-0.675,-0.6816,-0.6824,-0.6846,-0.6921,-0.6926,-0.6886,-0.6889,-0.6892,-0.6893,0,0,0,0,0,0,0,-0.6512,-0.6525,-0.665,-0.6635,-0.6641,-0.665,-0.6662,-0.6713,-0.6766,-0.6715,-0.6718,-0.673,-0.6818,-0.6841,-0.6849,-0.6927,-0.6886,-0.6891,-0.6894,-0.6896,-0.7047,-0.7048,0,0,0,0,0,0,-0.65,-0.652,-0.6646,-0.6653,-0.6577,-0.6654,-0.6667,-0.6695,-0.6766,-0.6776,-0.673,-0.6731,-0.6833,-0.6843,-0.6853,-0.6912,-0.6892,-0.6896,-0.6899,-0.7046,-0.7047,-0.7048,0,0,0,0,0,0,-0.6497,-0.6511,-0.6642,-0.6587,-0.6605,-0.6658,-0.6689,-0.6698,-0.6721,-0.6777,-0.6787,-0.6744,-0.6833,-0.6846,-0.69,-0.6917,-0.6899,-0.6903,-0.7045,-0.7047,-0.7048,-0.703,0,0,0,0,0,0,-0.6491,-0.651,-0.6527,-0.6587,-0.6607,-0.6686,-0.669,-0.67,-0.6729,-0.6732,-0.6793,-0.6802,-0.6833,-0.6892,-0.6905,-0.6923,-0.6907,-0.7044,-0.7046,-0.7047,-0.703,-0.7031,-0.7032,0,0,0,0,0,-0.6485,-0.6517,-0.6527,-0.6542,-0.663,-0.6687,-0.6699,-0.6733,-0.6731,-0.6749,-0.6785,-0.68,-0.6913,-0.6898,-0.6913,-0.6932,-0.7043,-0.7045,-0.7047,-0.7029,-0.7031,-0.7032,0,0,0,0,0,0,-0.6458,-0.6526,-0.6538,-0.659,-0.6633,-0.6693,-0.6717,-0.6733,-0.6777,-0.6777,-0.6819,-0.6832,-0.6884,-0.6914,-0.6896,-0.6981,-0.6979,-0.6984,-0.696,-0.6962,-0.6963,-0.6955,-0.6912,0,0,0,0,0,-0.6457,-0.6498,-0.6555,-0.6596,-0.6617,-0.6663,-0.6689,-0.6712,-0.6758,-0.6776,-0.6817,-0.6861,-0.6907,-0.6936,-0.6981,-0.7034,-0.7049,-0.7055,-0.7056,-0.7057,-0.7061,-0.7094,-0.7098,-0.7055,-0.7055,-0.7055,0,0,-0.6458,-0.65,-0.6523,-0.6592,-0.6627,-0.6669,-0.6678,-0.6721,-0.6753,-0.6783,-0.6837,-0.6868,-0.6921,-0.6975,-0.7001,-0.7002,-0.7076,-0.706,-0.706,-0.7064,-0.7096,-0.71,-0.7104,-0.7057,-0.7057,-0.7056,0,0,-0.648,-0.6516,-0.6554,-0.659,-0.6643,-0.6674,-0.6683,-0.6742,-0.6764,-0.6818,-0.6842,-0.6881,-0.6958,-0.6995,-0.7024,-0.7062,-0.7078,-0.7075,-0.7082,-0.7113,-0.7116,-0.7119,-0.7134,-0.7139,-0.7079,-0.7079,-0.7079,0,-0.6474,-0.6537,-0.6572,-0.6615,-0.6645,-0.6674,-0.6714,-0.6747,-0.6813,-0.6834,-0.6833,-0.6932,-0.6969,-0.7033,-0.7042,-0.7064,-0.7078,-0.7069,-0.7113,-0.7116,-0.712,-0.7134,-0.714,-0.7079,-0.7079,-0.7079,-0.7079,0,-0.6528,-0.6572,-0.6597,-0.6659,-0.6692,-0.6733,-0.6776,-0.6806,-0.6826,-0.6857,-0.6913,-0.6959,-0.7014,-0.7031,-0.7051,-0.7099,-0.7098,-0.7104,-0.7103,-0.7122,-0.7137,-0.7143,-0.7078,-0.7078,-0.7078,-0.7078,0,0,-0.6536,-0.6618,-0.6626,-0.6656,-0.6718,-0.6753,-0.6796,-0.685,-0.6875,-0.692,-0.6958,-0.7023,-0.703,-0.7063,-0.7087,-0.7114,-0.7144,-0.7118,-0.712,-0.7122,-0.7201,-0.7197,-0.7202,-0.7154,-0.7156,-0.7157,-0.7197,0,-0.6567,-0.6645,-0.6678,-0.6741,-0.6783,-0.6811,-0.6849,-0.6892,-0.6923,-0.6963,-0.6997,-0.7044,-0.7048,-0.7068,-0.7096,-0.7134,-0.716,-0.7131,-0.7192,-0.7194,-0.7179,-0.721,-0.7205,-0.7241,-0.7203,-0.7204,-0.7205,0,-0.6614,-0.6659,-0.6726,-0.6784,-0.6803,-0.6836,-0.6889,-0.6927,-0.6977,-0.6997,-0.7034,-0.7058,-0.7106,-0.7101,-0.7169,-0.7148,-0.7175,-0.7198,-0.72,-0.7208,-0.7201,-0.722,-0.7253,-0.7259,-0.7214,-0.7213,-0.7212,0,-0.6614,-0.6691,-0.6742,-0.6766,-0.6835,-0.6858,-0.6888,-0.6937,-0.6968,-0.7014,-0.7035,-0.7086,-0.7115,-0.7155,-0.7192,-0.7185,-0.7257,-0.7255,-0.7277,-0.7276,-0.7291,-0.729,-0.7331,-0.7307,-0.7307,-0.7307,-0.7306,0,-0.6646,-0.6687,-0.6743,-0.6774,-0.6821,-0.686,-0.6905,-0.6937,-0.6981,-0.702,-0.7047,-0.7083,-0.713,-0.7173,-0.7202,-0.7255,-0.7267,-0.7286,-0.7294,-0.7284,-0.7282,-0.7303,-0.7302,-0.7308,-0.7308,-0.7307,-0.7307,0,-0.6655,-0.6694,-0.6752,-0.6812,-0.6828,-0.686,-0.6913,-0.6945,-0.6977,-0.7026,-0.704,-0.7091,-0.7142,-0.7183,-0.7251,-0.7271,-0.7327,-0.7334,-0.731,-0.7314,-0.7334,-0.7332,-0.7391,-0.7401,-0.7368,-0.7369,-0.7369,0,-0.6673,-0.6705,-0.6769,-0.6797,-0.6826,-0.6871,-0.6903,-0.6942,-0.6974,-0.7034,-0.7059,-0.7113,-0.7158,-0.7239,-0.7283,-0.7335,-0.7345,-0.7362,-0.7353,-0.7343,-0.7347,-0.7345,-0.7349,-0.7363,-0.7364,-0.7364,-0.7364,0,-0.6702,-0.672,-0.6764,-0.6816,-0.6853,-0.6895,-0.6939,-0.696,-0.7008,-0.7043,-0.7096,-0.7131,-0.72,-0.7253,-0.731,-0.7342,-0.7362,-0.7366,-0.7374,-0.7365,-0.735,-0.736,-0.7314,-0.7365,-0.7365,-0.7365,-0.7365,-0.7365,-0.6717,-0.6747,-0.6798,-0.6846,-0.6883,-0.6923,-0.6957,-0.6993,-0.7038,-0.7097,-0.7118,-0.7173,-0.7223,-0.7302,-0.7334,-0.7379,-0.738,-0.7392,-0.7395,-0.7397,-0.7397,-0.7342,-0.7389,-0.7389,-0.7389,-0.7389,-0.7389,0,-0.6749,-0.6783,-0.6827,-0.6887,-0.6926,-0.6939,-0.6989,-0.702,-0.7068,-0.7113,-0.7157,-0.7219,-0.7271,-0.7319,-0.7374,-0.7401,-0.7411,-0.7414,-0.7413,-0.742,-0.7392,-0.738,-0.7405,-0.7405,-0.7405,-0.7405,-0.7405,-0.7404,-0.677,-0.6822,-0.6846,-0.6918,-0.6952,-0.7005,-0.7032,-0.707,-0.7106,-0.7174,-0.7217,-0.7248,-0.7295,-0.7354,-0.7403,-0.7416,-0.7435,-0.7436,-0.7451,-0.7424,-0.7422,-0.742,-0.7409,-0.744,-0.744,-0.7477,-0.7477,-0.7477]}]]